SCOUT G-1 DEB

Satellite information

Favourite Embed

Satellite Type and Status

DEBRISIN ORBIT

Key statistics

Satellite SCOUT G-1 DEB at a glance.

Uptime

14684

Days in orbit

Revolutions

≈ 14.1

Per day

Orbit

LEO

Low Earth Orbit

Inclination

89.8

Latest

Satellite identification and parameters

Extended collection of information and parameters for SCOUT G-1 DEB.

Object identification

Identified? True

Debris? True

Object name: SCOUT G-1 DEB

International designator: 1985-066D

Object number (NORAD): 15950

Object ID (CCSDS): 15950

Country: UNITED STATES OF AMERICA (US)

Current information (Y/N): Y

RCS size: SMALL

Orbital parameters

Period: 101.842 minutes

Inclination: 89.8474 deg

SMA: 7224.013 km

Apoapsis: 904.101 km

Periapsis: 787.654 km

RAAN: 298.345 deg

Eccentricy: 0.00805968

Argument of periapsis: 279.7957 deg

Mean anomaly: 79.4135 deg

Mean motion: 14.13953134 rev/day

Mean motion (dot): 0.0000863 rev/day2

B* drag term: 0.0044017901 1/REarth

Two-line elements (TLE)

Creation date: Oct. 16, 2025, 2:37 a.m.

Reference frame: TEME

Reference center: EARTH

Epoch: Oct. 15, 2025, 5:50 p.m. UTC

TLE line 0: 0 SCOUT G-1 DEB

TLE line 1: 1 15950U 85066D 25288.74348013 .00008630 00000-0 44018-2 0 9996

TLE line 2: 2 15950 89.8474 298.3450 0080597 279.7957 79.4135 14.13953134 8469

Live tracking on map

Real-time ground track for satellite SCOUT G-1 DEB.

In-orbit conjunctions

A list of the most updated potential collisions computed for object SCOUT G-1 DEB.

Target Orbit TCA Probability of collision Miss distance Type
FENGYUN 1C DEB SSO 2025-09-23 10:51:26 0.0001814534 15.0 (m) DEBRIS
SL-3 R/B LEO 2025-08-21 16:05:52 0.0002778959 79.0 (m) ROCKET BODY
CZ-6A DEB LEO 2024-11-22 13:53:05 0.0001881684 558.0 (m) DEBRIS
METEOR 1-14 LEO 2024-11-18 14:50:07 0.0001560188 282.0 (m) PAYLOAD

Associated space launch

The Transit-O series of satellites that closely followed the design of Transit 5C-1 were also called “Oscars” (Oscar is the phonetic alphabet for “O”, i. e., operational). They were also called NNS (Navy Navigation Satellite) or shortened NavSat.

SCOUT G-1 DEB was lifted into orbit during the mission ‘Scout G-1 | Transit-O 24,30’, on board a Scout G-1 space rocket.

The launch took place on Aug. 3, 1985, 3:31 a.m. from Space Launch Complex 5.

For more information about the launch, click the button.

Launch to space Scout G-1 | Transit-O 24,30
Scout G-1 | Transit-O 24,30

Agency: N/A

Status: Launch Successful

Launch date: Aug. 3, 1985, 3:31 a.m. UTC

Rocket: Scout G-1

Launch pad: Space Launch Complex 5

Location: Vandenberg SFB, CA, USA

...

Latest news about this satellite

There are no fresh news available about this satellite. Check back as we update our databases every day.


Newsletter sign-up

Weekly statistics, charts and insights to help you stay on top of the space industry.